NOAA NWS Hourly Roundups by Site

Regional Weather Roundup for Phoenix, AZ

To Select Another Site Choose from List

Select Site:  

000
ASUS45 KPSR 222010
RWRAZ

ARIZONA HOURLY REGIONAL WEATHER ROUNDUP
NATIONAL WEATHER SERVICE PHOENIX AZ
100 PM MST FRI JUN 22 2018

NOTE: FAIR INDICATES FEW OR NO CLOUDS BELOW 12,000 FEET WITH NO
SIGNIFICANT WEATHER AND/OR OBSTRUCTIONS TO VISIBILITY.

AZZ001>003-036-222100-
NORTHWEST ARIZONA

CITY           SKY/WX    TMP DP  RH WIND       PRES   REMARKS
BULLHEAD CITY  SUNNY    108  18   4 NW7       29.71F
KINGMAN        SUNNY    102  27   7 E3        29.93F
$$

AZZ004>008-015-016-018-222100-
NORTH CENTRAL ARIZONA

CITY           SKY/WX    TMP DP  RH WIND       PRES   REMARKS
GRAND CANYON   SUNNY     87  14   6 NW10G21   30.17F
WILLIAMS       SUNNY     88   1   4 NW13G22   30.16F
PRESCOTT       SUNNY     95  17   6 SW12G21   30.05F
FLAGSTAFF      SUNNY     85  21   9 SW9G20    30.19F
PAYSON         SUNNY     91  19   7 W9G17     30.07F
PAGE           SUNNY     98  14   4 N16G22    29.94F
$$

AZZ009>014-017-222100-
NORTHEAST ARIZONA

CITY           SKY/WX    TMP DP  RH WIND       PRES   REMARKS
WINSLOW        NOT AVBL
SAINT JOHNS    SUNNY     94  15   5 NW13G28   30.06F
WINDOW ROCK    SUNNY     91   8   4 W12G29    30.13F
SHOW LOW       SUNNY     91  18   6 W10G20    30.14F
$$

AZZ540-542>544-546-548-222100-
GREATER PHOENIX AREA

CITY           SKY/WX    TMP DP  RH WIND       PRES   REMARKS
PHOENIX        SUNNY    106  25   6 W5        29.75F
BUCKEYE          N/A    104  36   9 SE6       29.76F
GLENDALE       SUNNY    108  23   5 SW10      29.77F
LUKE AFB       MOSUNNY  105  25   6 SW12      29.75F
DEER VALLEY    SUNNY    103  27   7 S12G18    29.78F
SCOTTSDALE     SUNNY    104  34   9 SW6       29.80F
MESA-FALCON    SUNNY    102  36  10 W5        29.79F
MESA-GATEWAY   SUNNY    104  32   8 SW9       29.80F
CHANDLER       SUNNY    104  27   6 S10       29.77F
$$

AZZ539-553-222100-
SOUTHWEST MARICOPA COUNTY AND PINAL COUNTY

CITY           SKY/WX    TMP DP  RH WIND       PRES   REMARKS
CASA GRANDE    SUNNY    104  29   7 SW8       29.80F
GILA BEND      FAIR     107  30   7 SW8       29.74F
$$

AZZ503-504-507>509-222100-
SOUTHEAST ARIZONA

CITY           SKY/WX    TMP DP  RH WIND       PRES   REMARKS
TUCSON         SUNNY    102  26   7 W5        29.91F
DAVIS-MONTHAN  SUNNY    104  34   9 S5        29.89F
RYAN FIELD     SUNNY    100  34  10 N6        29.89F
NOGALES        SUNNY    100  31   9 VRB5      29.99F
SIERRA VISTA   MOSUNNY   97  28   9 W13G21    30.06
DOUGLAS        SUNNY     99  30   9 W8        29.98F
SAFFORD        SUNNY    104  17   4 MISG      29.86F
$$

AZZ532-222100-
SOUTHWEST ARIZONA

CITY           SKY/WX    TMP DP  RH WIND       PRES   REMARKS
YUMA           SUNNY    107  44  12 S10       29.72F HX 102
$$

CAZ041-043-047-048-061-525>527-560>570-222100-
SOUTHERN CALIFORNIA

CITY           SKY/WX    TMP DP  RH WIND       PRES   REMARKS
DOWNTOWN L.A.  SUNNY     76  62  62 VRB3      29.86F
L.A. AIRPORT   PTSUNNY   72  61  68 W12       29.88F
SAN DIEGO      MOSUNNY   73  61  65 W10       29.88F
BURBANK        SUNNY     79  63  57 S8        29.86F
ONTARIO        SUNNY     86  60  41 W7        29.86F
RIVERSIDE      SUNNY     86  58  38 W7        29.86F HAZE
PALM SPRINGS   SUNNY    109  39   9 E6        29.72F HX 103
EL CENTRO NAS  SUNNY    104  48  15 VRB3      29.71F HX 100
IMPERIAL       SUNNY    106  47  13 S6        29.69F HX 102
BLYTHE         SUNNY    108  39   9 NE6       29.71F HX 102
NEEDLES        SUNNY    111  11   3 NE5       29.74F HX 101
$$

NVZ020-UTZ003-222100-
SOUTHERN NEVADA-UTAH

CITY           SKY/WX    TMP DP  RH WIND       PRES   REMARKS
LAS VEGAS      MOSUNNY  102  39  11 E6        29.84F
SALT LAKE CITY MOSUNNY   81  41  24 W8        30.08F
$$

NMZ009-TXZ055-222100-
NEW MEXICO-WEST TEXAS

CITY           SKY/WX    TMP DP  RH WIND       PRES   REMARKS
ALBUQUERQUE    MOSUNNY   93  27   9 SW7       29.99F
EL PASO        MOSUNNY  104  31   8 SW13      29.92F
$$


........................KEY........................
SKY/WX - SKY CONDITION/WEATHER
TMP    - TEMPERATURE IN FAHRENHEIT
DP     - DEW POINT IN FAHRENHEIT
RH     - RELATIVE HUMIDITY IN PERCENT
WIND   - DIRECTION AND SPEED IN MILES PER HOUR (MPH)
VRB    - VARIABLE WIND DIRECTION
PRES   - MEAN SEA LEVEL PRESSURE IN INCHES OF MERCURY
         F - FALLING PRESSURE   R - RISING PRESSURE
         S - STEADY PRESSURE
VSB    - VISIBILITY IN MILES
HX     - HEAT INDEX IN FAHRENHEIT
WCI    - WIND CHILL INDEX IN FAHRENHEIT
TC     - TEMPERATURE IN CELSIUS WHICH IS ALSO KNOWN AS
         TEMPERATURE IN CENTIGRADE
AFB    - AIR FORCE BASE
         LUKE AFB IS LUKE AIR FORCE BASE
         DAVIS-MONTHAN IS DAVIS-MONTHAN AIR FORCE BASE
NAS    - NAVAL AIR STATION
         EL CENTRO NAS IS EL CENTRO NAVAL AIR STATION
N/A    - NOT AVAILABLE




 

View Past Reports for Phoenix, AZ.

Products Courtesy of NOAA-NWS
NWS Information Parsing Script by Ken True at Saratoga Weather - Script by SE Lincoln Weather.